Douglas, WY

10:54 AM MDT on August 27, 2016 (GMT -0600)
Converse County

Weather History for KDGW - April, 2013

Change the Weather History Date:

Tuesday, April 23, 2013

  Actual Average Record
Temperature  
Mean Temperature 27 °F 46 °F  
Max Temperature 41 °F 60 °F 85 °F (2012)
Min Temperature 13 °F 31 °F 13 °F (2013)
Degree Days  
Heating Degree Days 38 19  
Month to date heating degree days 694 512  
Since 1 July heating degree days 6638 6830  
Cooling Degree Days 0 0  
Month to date cooling degree days 0 0  
Year to date cooling degree days 0 0  
Moisture  
Dew Point 14 °F    
Average Humidity 59    
Maximum Humidity 88    
Minimum Humidity 30    
Precipitation  
Precipitation 0.00 in 0.06 in 0.84 in (2003)
Month to date precipitation 0.47 1.06  
Year to date precipitation 1.44 2.70  
Sea Level Pressure  
Sea Level Pressure 30.30 in    
Wind  
Wind Speed 9 mph (NW)    
Max Wind Speed 22 mph    
Max Gust Speed 33 mph    
Visibility 10 miles    
Events      
T = Trace of Precipitation, MM = Missing Value Source: NWS Daily Summary

Daily Weather History Graph

Daily Weather History Graph

Search for Another Location

Airport or City:

Trip Planner

Search our weather history database for the weather conditions in past years. The results will help you decide how hot, cold, wet, or windy it might be!

Date:

Astronomy

Apr. 23, 2013 Rise Set
Actual Time 6:06 AM MDT 7:53 PM MDT
Civil Twilight 5:36 AM MDT 8:23 PM MDT
Nautical Twilight 5:00 AM MDT 9:00 PM MDT
Astronomical Twilight 4:20 AM MDT 9:40 PM MDT
Moon 5:49 PM MDT (4/23) 4:39 AM MDT (4/23)
Length of Visible Light 14h 46m
Length of Day
13h 46m
Waxing Gibbous, 94% of the Moon is Illuminated
Apr 23
Waxing Gibbous
Apr 25
Full
May 2
Last Quarter
May 9
New
May 17
First Quarter

Hourly Weather History & Observations

Time (MDT) Temp. Windchill Dew Point Humidity Pressure Visibility Wind Dir Wind Speed Gust Speed Precip Events Conditions
12:53 AM 19.0 °F 12.3 °F 15.1 °F 85% 30.46 in 10.0 mi NNW 4.6 mph - N/A   Clear
1:53 AM 18.0 °F 12.7 °F 14.0 °F 84% 30.43 in 10.0 mi NW 3.5 mph - N/A   Clear
2:53 AM 17.1 °F 8.7 °F 14.0 °F 88% 30.42 in 10.0 mi NNW 5.8 mph - N/A   Clear
4:53 AM 14.0 °F 5.1 °F 10.9 °F 88% 30.42 in 10.0 mi West 5.8 mph - N/A   Clear
5:53 AM 15.1 °F 9.4 °F 10.0 °F 80% 30.40 in 10.0 mi West 3.5 mph - N/A   Clear
6:53 AM 17.1 °F 8.7 °F 12.0 °F 81% 30.40 in 10.0 mi NNW 5.8 mph - N/A   Clear
7:53 AM 19.0 °F 10.0 °F 12.0 °F 74% 30.39 in 10.0 mi NW 6.9 mph - N/A   Clear
8:53 AM 21.9 °F 11.0 °F 14.0 °F 72% 30.38 in 10.0 mi WNW 10.4 mph - N/A   Clear
9:53 AM 24.1 °F 13.1 °F 17.1 °F 75% 30.36 in 10.0 mi West 11.5 mph - N/A   Mostly Cloudy
10:14 AM 26.6 °F 20.0 °F 15.8 °F 64% 30.21 in 10.0 mi Variable 5.8 mph - N/A   Scattered Clouds
10:53 AM 28.9 °F 18.6 °F 17.1 °F 61% 30.33 in 10.0 mi West 12.7 mph - N/A   Scattered Clouds
11:53 AM 33.1 °F 23.4 °F 17.1 °F 52% 30.29 in 10.0 mi West 13.8 mph - N/A   Partly Cloudy
12:53 PM 35.1 °F 26.4 °F 18.0 °F 50% 30.26 in 10.0 mi West 12.7 mph 23.0 mph N/A   Scattered Clouds
1:53 PM 37.0 °F 27.0 °F 17.1 °F 44% 30.23 in 10.0 mi NW 18.4 mph 24.2 mph N/A   Scattered Clouds
2:53 PM 39.0 °F 29.9 °F 16.0 °F 39% 30.21 in 10.0 mi NW 17.3 mph 20.7 mph N/A   Scattered Clouds
3:53 PM 39.9 °F 31.1 °F 12.9 °F 33% 30.20 in 10.0 mi WNW 17.3 mph 21.9 mph N/A   Partly Cloudy
4:53 PM 39.9 °F 30.8 °F 12.9 °F 33% 30.19 in 10.0 mi WNW 18.4 mph 24.2 mph N/A   Clear
5:53 PM 41.0 °F 33.9 °F 12.0 °F 31% 30.18 in 10.0 mi WNW 12.7 mph - N/A   Partly Cloudy
6:53 PM 37.9 °F 30.9 °F 10.0 °F 32% 30.18 in 10.0 mi NNW 10.4 mph - N/A   Clear
7:53 PM 34.0 °F 26.0 °F 17.1 °F 50% 30.19 in 10.0 mi NNE 10.4 mph - N/A   Clear
8:53 PM 30.0 °F 23.2 °F 14.0 °F 51% 30.23 in 10.0 mi NNE 6.9 mph - N/A   Clear
9:53 PM 28.0 °F - 10.9 °F 49% 30.26 in 10.0 mi Calm Calm - N/A   Clear
10:53 PM 26.1 °F 21.9 °F 15.1 °F 63% 30.24 in 10.0 mi West 3.5 mph - N/A   Clear
11:53 PM 25.0 °F - 16.0 °F 69% 30.23 in 10.0 mi Calm Calm - N/A   Clear